4XDAM LLHZ-LLMZ

Flight info

Callsign 4XDAM
Flight time N/A
Altitude 4500
Route CVFR
Aircraft C172/L-S/C

Departure

Time 2026-05-06 18:21
Airport Herzliya Airport (LLHZ)

Arrival

Time N/A
Airport Bar Yehuda Airfield (LLMZ)
Time Latitude Longitude Altitude Speed Heading
2026-05-06 18:13 32.18192 34.82829 89 ft 0 kts 288°
2026-05-06 18:18 32.18203 34.82826 87 ft 6 kts 99°
2026-05-06 18:19 32.18168 34.82898 87 ft 11 kts 110°
2026-05-06 18:19 32.18148 34.82963 89 ft 6 kts 109°
2026-05-06 18:19 32.18167 34.82992 91 ft 5 kts 113°
2026-05-06 18:19 32.18166 34.82997 91 ft 0 kts 109°
2026-05-06 18:20 32.18134 34.83102 91 ft 39 kts 110°
2026-05-06 18:20 32.17993 34.83575 153 ft 73 kts 109°
2026-05-06 18:20 32.17837 34.84152 377 ft 73 kts 110°
2026-05-06 18:20 32.17753 34.84744 585 ft 76 kts 79°
2026-05-06 18:21 32.18106 34.85191 812 ft 74 kts 30°
2026-05-06 18:21 32.18582 34.85392 1008 ft 79 kts 351°
2026-05-06 18:21 32.19031 34.85090 1261 ft 75 kts 321°
2026-05-06 18:21 32.19517 34.84615 1269 ft 98 kts 317°
2026-05-06 18:22 32.20029 34.84008 1170 ft 110 kts 314°
2026-05-06 18:22 32.20536 34.83342 1193 ft 107 kts 310°
2026-05-06 18:22 32.21015 34.82650 1163 ft 109 kts 307°
2026-05-06 18:22 32.21433 34.81909 1146 ft 108 kts 298°
2026-05-06 18:23 32.21573 34.81050 1087 ft 110 kts 261°
2026-05-06 18:23 32.21167 34.80310 1020 ft 111 kts 213°
2026-05-06 18:23 32.20435 34.80017 958 ft 111 kts 197°
2026-05-06 18:23 32.19692 34.79749 892 ft 111 kts 201°
2026-05-06 18:24 32.18974 34.79416 835 ft 111 kts 202°
2026-05-06 18:24 32.18247 34.79147 803 ft 109 kts 195°
2026-05-06 18:24 32.17520 34.78958 822 ft 104 kts 194°
2026-05-06 18:24 32.16806 34.78779 826 ft 105 kts 194°
2026-05-06 18:25 32.16095 34.78572 851 ft 105 kts 195°
2026-05-06 18:25 32.15386 34.78357 872 ft 105 kts 196°
2026-05-06 18:25 32.14674 34.78125 891 ft 106 kts 198°
2026-05-06 18:25 32.13974 34.77853 897 ft 107 kts 199°
2026-05-06 18:26 32.13250 34.77594 859 ft 111 kts 199°
2026-05-06 18:26 32.12532 34.77324 923 ft 105 kts 200°
2026-05-06 18:26 32.11831 34.77034 895 ft 110 kts 201°
2026-05-06 18:26 32.11099 34.76698 834 ft 113 kts 204°
2026-05-06 18:27 32.10392 34.76337 798 ft 110 kts 206°
2026-05-06 18:27 32.09702 34.75974 759 ft 108 kts 204°
2026-05-06 18:27 32.09011 34.75646 776 ft 106 kts 202°
2026-05-06 18:27 32.08329 34.75335 791 ft 104 kts 203°
2026-05-06 18:28 32.07649 34.75025 789 ft 105 kts 202°
2026-05-06 18:28 32.06959 34.74753 809 ft 104 kts 199°
2026-05-06 18:28 32.06259 34.74517 804 ft 105 kts 196°
2026-05-06 18:28 32.05550 34.74307 823 ft 105 kts 194°
2026-05-06 18:29 32.04831 34.74171 835 ft 105 kts 189°
2026-05-06 18:29 32.04111 34.74018 840 ft 106 kts 197°
2026-05-06 18:29 32.03409 34.73769 858 ft 105 kts 199°
2026-05-06 18:29 32.02709 34.73515 865 ft 106 kts 198°
2026-05-06 18:30 32.02002 34.73271 867 ft 106 kts 198°
2026-05-06 18:30 32.01291 34.73013 846 ft 108 kts 198°
2026-05-06 18:30 32.00547 34.72885 825 ft 109 kts 181°
2026-05-06 18:30 31.99810 34.73050 811 ft 110 kts 157°
2026-05-06 18:31 31.99163 34.73550 794 ft 113 kts 144°
2026-05-06 18:31 31.98554 34.74129 780 ft 112 kts 141°
2026-05-06 18:31 31.97956 34.74712 783 ft 111 kts 141°
2026-05-06 18:31 31.97355 34.75287 770 ft 111 kts 143°
2026-05-06 18:32 31.96758 34.75869 744 ft 112 kts 140°
2026-05-06 18:32 31.96205 34.76498 758 ft 109 kts 136°
2026-05-06 18:32 31.95681 34.77142 760 ft 110 kts 135°
2026-05-06 18:32 31.95152 34.77797 748 ft 110 kts 134°
2026-05-06 18:33 31.94639 34.78444 788 ft 107 kts 132°
2026-05-06 18:33 31.94210 34.79168 784 ft 108 kts 119°
2026-05-06 18:33 31.93888 34.79943 807 ft 107 kts 119°
2026-05-06 18:33 31.93511 34.80694 829 ft 107 kts 123°
2026-05-06 18:34 31.93097 34.81427 847 ft 107 kts 125°
2026-05-06 18:34 31.92684 34.82161 855 ft 108 kts 125°
2026-05-06 18:34 31.92275 34.82906 856 ft 108 kts 121°
2026-05-06 18:34 31.91947 34.83703 872 ft 109 kts 114°
2026-05-06 18:35 31.91685 34.84535 880 ft 108 kts 110°
2026-05-06 18:35 31.91428 34.85374 877 ft 110 kts 111°
2026-05-06 18:35 31.91178 34.86214 895 ft 108 kts 109°
2026-05-06 18:35 31.90942 34.87063 874 ft 110 kts 108°
2026-05-06 18:36 31.90770 34.87946 858 ft 111 kts 97°
2026-05-06 18:36 31.90718 34.88849 860 ft 110 kts 94°
2026-05-06 18:36 31.90636 34.89733 851 ft 110 kts 102°
2026-05-06 18:36 31.90356 34.90575 822 ft 112 kts 124°
2026-05-06 18:37 31.89816 34.91224 816 ft 110 kts 144°
2026-05-06 18:37 31.89411 34.91589 835 ft 108 kts 141°
2026-05-06 18:37 31.88740 34.92480 817 ft 110 kts 126°
2026-05-06 18:37 31.88296 34.93209 807 ft 111 kts 134°
2026-05-06 18:38 31.87742 34.93829 826 ft 108 kts 137°
2026-05-06 18:38 31.87255 34.94511 818 ft 110 kts 123°
2026-05-06 18:38 31.86941 34.95333 839 ft 112 kts 108°
2026-05-06 18:38 31.86705 34.96157 1140 ft 103 kts 110°
2026-05-06 18:39 31.86399 34.96963 1278 ft 106 kts 124°
2026-05-06 18:39 31.85890 34.97545 1490 ft 106 kts 149°
2026-05-06 18:39 31.85227 34.97907 1711 ft 103 kts 162°
2026-05-06 18:40 31.83811 34.98170 1884 ft 104 kts 180°
2026-05-06 18:40 31.83106 34.98381 1903 ft 109 kts 150°
2026-05-06 18:40 31.82595 34.99014 2141 ft 102 kts 122°
2026-05-06 18:40 31.82322 34.99780 2339 ft 105 kts 109°
2026-05-06 18:41 31.82091 35.00570 2578 ft 99 kts 110°
2026-05-06 18:41 31.81845 35.01290 2827 ft 91 kts 121°
2026-05-06 18:41 31.81446 35.01847 3043 ft 87 kts 142°
2026-05-06 18:41 31.80960 35.02318 3237 ft 88 kts 137°
2026-05-06 18:42 31.80590 35.02862 3479 ft 83 kts 125°
2026-05-06 18:42 31.80301 35.03446 3692 ft 84 kts 119°
2026-05-06 18:42 31.80087 35.04061 3926 ft 82 kts 110°
2026-05-06 18:42 31.79914 35.04707 4143 ft 80 kts 103°
2026-05-06 18:43 31.79743 35.05334 4302 ft 83 kts 117°
2026-05-06 18:43 31.79532 35.05937 4473 ft 82 kts 109°
2026-05-06 18:43 31.79403 35.06650 4536 ft 98 kts 97°
2026-05-06 18:43 31.79299 35.07465 4566 ft 103 kts 104°
2026-05-06 18:44 31.79143 35.08325 4511 ft 111 kts 99°
2026-05-06 18:44 31.79067 35.09216 4515 ft 110 kts 96°
2026-05-06 18:44 31.78945 35.10109 4489 ft 110 kts 101°
2026-05-06 18:44 31.78928 35.11004 4458 ft 111 kts 81°
2026-05-06 18:45 31.79103 35.11885 4494 ft 109 kts 73°
2026-05-06 18:45 31.79383 35.12721 4501 ft 110 kts 64°
2026-05-06 18:45 31.79750 35.13530 4430 ft 115 kts 61°
2026-05-06 18:45 31.80005 35.14061 4499 ft 109 kts 61°
2026-05-06 18:46 31.80517 35.15092 4532 ft 111 kts 59°
2026-05-06 18:46 31.80945 35.15830 4567 ft 109 kts 52°
2026-05-06 18:46 31.81439 35.16524 4559 ft 112 kts 50°
2026-05-06 18:46 31.81933 35.17215 4571 ft 111 kts 48°
2026-05-06 18:47 31.82444 35.17902 4570 ft 112 kts 52°
2026-05-06 18:47 31.82795 35.18728 4539 ft 115 kts 77°
2026-05-06 18:47 31.82923 35.19656 4548 ft 113 kts 82°
2026-05-06 18:47 31.83040 35.20601 4434 ft 121 kts 81°
2026-05-06 18:48 31.83154 35.21558 4446 ft 115 kts 83°
2026-05-06 18:48 31.83397 35.22438 4458 ft 112 kts 60°
2026-05-06 18:48 31.83781 35.23202 4522 ft 106 kts 59°
2026-05-06 18:48 31.84082 35.24026 4431 ft 114 kts 79°
2026-05-06 18:49 31.84090 35.24932 4486 ft 108 kts 99°
2026-05-06 18:49 31.83944 35.25803 4435 ft 110 kts 103°
2026-05-06 18:49 31.83763 35.26638 4518 ft 101 kts 109°
2026-05-06 18:49 31.83598 35.27453 4505 ft 105 kts 94°
2026-05-06 18:50 31.83669 35.28293 4528 ft 103 kts 85°
2026-05-06 18:50 31.83523 35.29119 4522 ft 106 kts 114°
2026-05-06 18:50 31.83106 35.29882 4598 ft 89 kts 130°
2026-05-06 18:50 31.82692 35.30529 4253 ft 127 kts 127°
2026-05-06 18:51 31.82222 35.31331 4403 ft 104 kts 123°
2026-05-06 18:51 31.81923 35.32063 4462 ft 104 kts 111°
2026-05-06 18:51 31.81714 35.32866 4544 ft 101 kts 104°
2026-05-06 18:51 31.81606 35.33749 4397 ft 114 kts 98°
2026-05-06 18:52 31.81514 35.34588 4549 ft 102 kts 97°
2026-05-06 18:52 31.81439 35.35426 4590 ft 102 kts 97°
2026-05-06 18:52 31.81335 35.36264 4584 ft 106 kts 101°
2026-05-06 18:52 31.81211 35.37115 4605 ft 106 kts 99°
2026-05-06 18:53 31.81130 35.38037 4523 ft 106 kts 93°
2026-05-06 18:53 31.81111 35.38943 4420 ft 115 kts 89°
2026-05-06 18:53 31.81122 35.39873 4342 ft 119 kts 98°
2026-05-06 18:53 31.80882 35.40853 4116 ft 128 kts 111°
2026-05-06 18:54 31.80670 35.41512 3965 ft 131 kts 112°
2026-05-06 18:54 31.80341 35.42523 3783 ft 131 kts 112°
2026-05-06 18:54 31.79994 35.43508 3608 ft 130 kts 115°
2026-05-06 18:54 31.79198 35.44546 3394 ft 128 kts 129°
2026-05-06 18:55 31.78652 35.45295 3416 ft 110 kts 144°
2026-05-06 18:55 31.78196 35.45526 3453 ft 102 kts 174°
2026-05-06 18:55 31.77494 35.45457 3484 ft 101 kts 197°
2026-05-06 18:55 31.76831 35.45232 3508 ft 102 kts 197°
2026-05-06 18:56 31.76137 35.45059 3547 ft 100 kts 192°
2026-05-06 18:56 31.75442 35.44929 3565 ft 101 kts 192°
2026-05-06 18:56 31.74756 35.44790 3563 ft 104 kts 193°
2026-05-06 18:56 31.74031 35.44581 3530 ft 108 kts 195°
2026-05-06 18:57 31.73305 35.44414 3545 ft 107 kts 193°
2026-05-06 18:57 31.72581 35.44219 3531 ft 108 kts 195°
2026-05-06 18:57 31.71859 35.43988 3539 ft 107 kts 199°
2026-05-06 18:57 31.71157 35.43705 3545 ft 107 kts 202°
2026-05-06 18:58 31.70467 35.43379 3515 ft 107 kts 204°
2026-05-06 18:58 31.69764 35.43080 3496 ft 107 kts 200°
2026-05-06 18:58 31.69056 35.42811 3465 ft 108 kts 199°
2026-05-06 18:58 31.68345 35.42555 3472 ft 105 kts 198°
2026-05-06 18:59 31.67631 35.42302 3444 ft 108 kts 198°
2026-05-06 18:59 31.66918 35.42054 3441 ft 106 kts 198°
2026-05-06 18:59 31.66231 35.41817 3505 ft 99 kts 198°
2026-05-06 18:59 31.65561 35.41599 3510 ft 101 kts 198°
2026-05-06 19:00 31.64881 35.41373 3506 ft 102 kts 197°
2026-05-06 19:00 31.64194 35.41148 3508 ft 103 kts 198°